N6OIM Weather Reports


Display with metric or nautical units.
time (UTC)temp
F
wind
direction
speed
MPH
gust
MPH
rain 1hr
in
rain 24hr
in
rain mn
in
humidity
%
barometer
mb
20260902005334 79 271 0.0 0.0 0.00 0.00 0.00 38 1012.2
20260902004822 79 240 0.0 0.0 0.00 0.00 0.00 38 1012.2
20260902004332 79 199 0.0 0.0 0.00 0.00 0.00 38 1012.2
20260902003820 79 213 0.0 0.0 0.00 0.00 0.00 38 1012.3
20260902003330 79 296 0.0 0.0 0.00 0.00 0.00 38 1012.3
20260902002818 79 203 0.0 0.0 0.00 0.00 0.00 38 1012.3
20260902002328 79 278 0.0 0.0 0.00 0.00 0.00 37 1012.3
20260902001821 79 225 0.0 0.0 0.00 0.00 0.00 37 1012.4
20260902001329 80 221 0.0 0.0 0.00 0.00 0.00 36 1012.3
20260902000817 79 206 0.0 0.0 0.00 0.00 0.00 36 1012.4
20260902000330 79 241 0.0 0.0 0.00 0.00 0.00 37 1012.4
20260901235819 79 241 0.0 0.0 0.00 0.00 0.00 36 1012.3
20260901235328 79 237 0.0 0.0 0.00 0.00 0.00 36 1012.4
20260901234816 79 187 0.0 0.0 0.00 0.00 0.00 37 1012.3
20260901234328 79 126 0.0 0.0 0.00 0.00 0.00 37 1012.4
20260901233817 79 234 0.0 0.0 0.00 0.00 0.00 37 1012.5
20260901233330 79 247 0.0 0.0 0.00 0.00 0.00 37 1012.5
20260901232822 79 238 0.0 0.0 0.00 0.00 0.00 36 1012.6
20260901232332 79 209 0.0 0.0 0.00 0.00 0.00 37 1012.6
20260901231824 79 222 0.0 0.0 0.00 0.00 0.00 36 1012.6
20260901231333 79 142 0.0 0.0 0.00 0.00 0.00 36 1012.6
20260901230822 79 148 0.0 0.0 0.00 0.00 0.00 37 1012.8
20260901230332 79 211 0.0 0.0 0.00 0.00 0.00 37 1012.8
20260901225820 79 209 0.0 0.0 0.00 0.00 0.00 37 1012.8
20260901225331 79 295 0.0 0.0 0.00 0.00 0.00 37 1012.8
20260901224824 78 211 0.0 0.0 0.00 0.00 0.00 38 1012.9
20260901224333 78 271 0.0 0.0 0.00 0.00 0.00 38 1012.9
20260901223821 78 211 0.0 0.0 0.00 0.00 0.00 39 1012.9
20260901223331 78 235 0.0 0.0 0.00 0.00 0.00 39 1012.9
20260901222821 78 355 0.0 0.0 0.00 0.00 0.00 40 1013.0
20260901222331 78 279 0.0 0.0 0.00 0.00 0.00 39 1013.0
20260901221819 78 222 0.0 0.0 0.00 0.00 0.00 40 1013.2
20260901221328 78 219 0.0 0.0 0.00 0.00 0.00 39 1013.2
20260901220822 78 298 0.0 0.0 0.00 0.00 0.00 40 1013.3
20260901220332 78 224 0.0 0.0 0.00 0.00 0.00 40 1013.2
20260901215820 78 232 0.0 0.0 0.00 0.00 0.00 41 1013.4
20260901215332 78 160 0.0 0.0 0.00 0.00 0.00 42 1013.3
20260901214819 77 173 0.0 0.0 0.00 0.00 0.00 42 1013.4
20260901214328 77 273 0.0 0.0 0.00 0.00 0.00 42 1013.2
20260901213819 77 232 0.0 0.0 0.00 0.00 0.00 42 1013.4
20260901213328 77 245 0.0 0.0 0.00 0.00 0.00 43 1013.3
20260901212816 76 210 0.0 0.0 0.00 0.00 0.00 43 1013.3
20260901212332 76 125 0.0 0.0 0.00 0.00 0.00 43 1013.3
20260901211820 76 203 0.0 0.0 0.00 0.00 0.00 45 1013.3
20260901211329 75 255 0.0 0.0 0.00 0.00 0.00 44 1013.4
20260901210818 75 221 0.0 0.0 0.00 0.00 0.00 45 1013.5
20260901210328 75 184 0.0 0.0 0.00 0.00 0.00 46 1013.6
20260901205836 75 244 0.0 0.0 0.00 0.00 0.00 47 1013.5
20260901205324 74 171 0.0 0.0 0.00 0.00 0.00 47 1013.7
20260901204831 74 210 0.0 0.0 0.00 0.00 0.00 47 1013.7
20260901204320 74 279 0.0 0.0 0.00 0.00 0.00 47 1013.8
20260901203832 74 259 0.0 0.0 0.00 0.00 0.00 47 1013.8
20260901203321 74 271 0.0 0.0 0.00 0.00 0.00 48 1014.0
20260901202832 74 262 0.0 0.0 0.00 0.00 0.00 47 1014.0
20260901202323 74 259 0.0 0.0 0.00 0.00 0.00 48 1014.1
20260901201831 74 142 0.0 0.0 0.00 0.00 0.00 48 1014.0
20260901201320 74 284 0.0 0.0 0.00 0.00 0.00 48 1014.1
20260901200828 74 253 0.0 0.0 0.00 0.00 0.00 49 1014.0
20260901200317 73 258 0.0 0.0 0.00 0.00 0.00 49 1014.0
20260901195825 73 206 0.0 0.0 0.00 0.00 0.00 50 1014.0
20260901195319 72 150 0.0 0.0 0.00 0.00 0.00 50 1014.0
20260901194827 72 180 0.0 0.0 0.00 0.00 0.00 51 1014.0
20260901194316 72 268 0.0 0.0 0.00 0.00 0.00 51 1014.1
20260901193823 72 157 0.0 0.0 0.00 0.00 0.00 51 1014.2
20260901193315 72 261 0.0 0.0 0.00 0.00 0.00 51 1014.3
20260901192828 72 252 0.0 0.0 0.00 0.00 0.00 52 1014.3
20260901192317 71 272 0.0 0.0 0.00 0.00 0.00 52 1014.3
20260901191826 71 265 0.0 0.0 0.00 0.00 0.00 52 1014.3
20260901191320 71 215 0.0 0.0 0.00 0.00 0.00 53 1014.3
20260901190831 71 252 0.0 0.0 0.00 0.00 0.00 53 1014.2
20260901190323 70 268 0.0 0.0 0.00 0.00 0.00 54 1014.5
20260901185831 70 273 0.0 0.0 0.00 0.00 0.00 56 1014.5
20260901185323 70 273 0.0 0.0 0.00 0.00 0.00 56 1014.6
20260901184830 70 272 0.0 0.0 0.00 0.00 0.00 57 1014.7
20260901184322 70 273 0.0 0.0 0.00 0.00 0.00 57 1014.6
20260901183829 70 274 0.0 0.0 0.00 0.00 0.00 57 1014.7
20260901183318 70 281 0.0 0.0 0.00 0.00 0.00 57 1014.7
20260901182829 70 290 0.0 0.0 0.00 0.00 0.00 57 1014.6
20260901182319 70 244 0.0 0.0 0.00 0.00 0.00 57 1014.5
20260901181827 70 226 0.0 0.0 0.00 0.00 0.00 57 1014.6
20260901181336 70 190 0.0 0.0 0.00 0.00 0.00 57 1014.6
20260901180823 70 191 0.0 0.0 0.00 0.00 0.00 57 1014.6
20260901180332 70 231 0.0 0.0 0.00 0.00 0.00 58 1014.5
20260901175819 69 236 0.0 0.0 0.00 0.00 0.00 57 1014.5
20260901175331 69 210 0.0 0.0 0.00 0.00 0.00 58 1014.5
20260901174820 69 170 0.0 0.0 0.00 0.00 0.00 58 1014.5
20260901174333 69 154 0.0 0.0 0.00 0.00 0.00 59 1014.5
20260901173821 69 145 0.0 0.0 0.00 0.00 0.00 59 1014.5
20260901173330 69 121 0.0 0.0 0.00 0.00 0.00 59 1014.4
20260901172818 69 186 0.0 0.0 0.00 0.00 0.00 59 1014.6
20260901172327 68 160 0.0 0.0 0.00 0.00 0.00 60 1014.6
20260901171816 68 202 0.0 0.0 0.00 0.00 0.00 60 1014.6
20260901171326 68 121 0.0 0.0 0.00 0.00 0.00 61 1014.5
20260901170818 67 130 0.0 0.0 0.00 0.00 0.00 61 1014.4
20260901170328 67 133 0.0 0.0 0.00 0.00 0.00 62 1014.4
20260901165820 67 223 0.0 0.0 0.00 0.00 0.00 62 1014.4
20260901165330 67 159 0.0 0.0 0.00 0.00 0.00 61 1014.4
20260901164822 67 200 0.0 0.0 0.00 0.00 0.00 61 1014.4
20260901164333 67 248 0.0 0.0 0.00 0.00 0.00 62 1014.4
20260901163823 66 173 0.0 0.0 0.00 0.00 0.00 63 1014.3
20260901163332 66 184 0.0 0.0 0.00 0.00 0.00 63 1014.3
20260901162824 66 260 0.0 0.0 0.00 0.00 0.00 64 1014.3
20260901162333 66 259 0.0 0.0 0.00 0.00 0.00 64 1014.3
20260901161825 66 188 0.0 0.0 0.00 0.00 0.00 65 1014.2
20260901161335 65 257 0.0 0.0 0.00 0.00 0.00 65 1014.2
20260901160822 65 133 0.0 0.0 0.00 0.00 0.00 66 1014.1
20260901160331 65 208 0.0 0.0 0.00 0.00 0.00 66 1014.0
20260901155822 65 165 0.0 0.0 0.00 0.00 0.00 67 1014.0
20260901155331 64 205 0.0 0.0 0.00 0.00 0.00 68 1014.0
20260901154821 64 182 0.0 0.0 0.00 0.00 0.00 69 1013.9
20260901154330 64 180 0.0 0.0 0.00 0.00 0.00 70 1013.8
20260901153818 63 163 0.0 0.0 0.00 0.00 0.00 70 1013.6
20260901153331 63 167 0.0 0.0 0.00 0.00 0.00 71 1013.5
20260901152819 63 155 0.0 0.0 0.00 0.00 0.00 72 1013.5
20260901152329 63 164 0.0 0.0 0.00 0.00 0.00 72 1013.4
20260901151837 62 160 0.0 0.0 0.00 0.00 0.00 73 1013.4
20260901151325 62 143 0.0 0.0 0.00 0.00 0.00 73 1013.3
20260901150833 62 137 0.0 0.0 0.00 0.00 0.00 73 1013.3
20260901150322 61 150 0.0 0.0 0.00 0.00 0.00 74 1013.3
20260901145829 61 150 0.0 0.0 0.00 0.00 0.00 74 1013.3
20260901145320 61 152 0.0 0.0 0.00 0.00 0.00 74 1013.3
20260901144833 61 136 0.0 0.0 0.00 0.00 0.00 74 1013.2
20260901144321 61 159 0.0 0.0 0.00 0.00 0.00 75 1013.2
20260901143833 61 150 0.0 0.0 0.00 0.00 0.00 75 1013.2
20260901143322 61 146 0.0 0.0 0.00 0.00 0.00 75 1013.1
20260901142831 60 122 0.0 0.0 0.00 0.00 0.00 75 1012.9
20260901142321 60 123 0.0 0.0 0.00 0.00 0.00 75 1012.9
20260901141829 60 121 0.0 0.0 0.00 0.00 0.00 75 1012.8
20260901141318 60 123 0.0 0.0 0.00 0.00 0.00 75 1012.6
20260901140827 60 125 0.0 0.0 0.00 0.00 0.00 75 1012.5
20260901140320 60 125 0.0 0.0 0.00 0.00 0.00 75 1012.5
20260901135828 60 125 0.0 0.0 0.00 0.00 0.00 75 1012.4
20260901135317 60 114 0.0 0.0 0.00 0.00 0.00 75 1012.4
20260901134826 60 113 0.0 0.0 0.00 0.00 0.00 75 1012.3
20260901134316 60 150 0.0 0.0 0.00 0.00 0.00 76 1012.4
20260901133828 60 141 0.0 0.0 0.00 0.00 0.00 76 1012.3
20260901133318 60 138 0.0 0.0 0.00 0.00 0.00 76 1012.4
20260901132827 60 178 0.0 0.0 0.00 0.00 0.00 76 1012.3
20260901132321 60 153 0.0 0.0 0.00 0.00 0.00 76 1012.2
20260901131830 60 119 0.0 0.0 0.00 0.00 0.00 76 1012.2
20260901131319 60 119 0.0 0.0 0.00 0.00 0.00 76 1012.1
20260901130829 60 119 0.0 0.0 0.00 0.00 0.00 76 1012.0
20260901130318 60 124 0.0 0.0 0.00 0.00 0.00 76 1011.9
20260901125829 60 144 0.0 0.0 0.00 0.00 0.00 76 1011.9
20260901125318 60 121 0.0 0.0 0.00 0.00 0.00 76 1012.0
20260901124829 60 123 0.0 0.0 0.00 0.00 0.00 76 1011.9
20260901124321 60 123 0.0 0.0 0.00 0.00 0.00 75 1011.9
20260901123836 60 123 0.0 0.0 0.00 0.00 0.00 75 1012.0
20260901123325 60 121 0.0 0.0 0.00 0.00 0.00 75 1012.0
20260901122833 60 120 0.0 0.0 0.00 0.00 0.00 75 1011.9
20260901122325 60 127 0.0 0.0 0.00 0.00 0.00 75 1012.0
20260901121833 60 132 0.0 0.0 0.00 0.00 0.00 75 1012.0
20260901121323 60 124 0.0 0.0 0.00 0.00 0.00 75 1012.1
20260901120832 60 129 0.0 0.0 0.00 0.00 0.00 75 1012.0
20260901120325 60 128 0.0 0.0 0.00 0.00 0.00 75 1012.1
20260901115822 60 111 0.0 0.0 0.00 0.00 0.00 75 1012.0
20260901115331 60 111 0.0 0.0 0.00 0.00 0.00 75 1012.0
20260901114822 60 122 0.0 0.0 0.00 0.00 0.00 75 1011.9
20260901114331 60 121 0.0 0.0 0.00 0.00 0.00 75 1011.8
20260901113822 60 121 0.0 0.0 0.00 0.00 0.00 75 1011.7
20260901113331 60 119 0.0 0.0 0.00 0.00 0.00 76 1011.7
20260901112822 60 169 0.0 0.0 0.00 0.00 0.00 76 1011.7
20260901112330 60 121 0.0 0.0 0.00 0.00 0.00 76 1011.6
20260901111818 60 117 0.0 0.0 0.00 0.00 0.00 76 1011.5
20260901111331 60 126 0.0 0.0 0.00 0.00 0.00 76 1011.6
20260901110820 60 136 0.0 0.0 0.00 0.00 0.00 76 1011.6
20260901110329 60 119 0.0 0.0 0.00 0.00 0.00 76 1011.6
20260901105836 60 125 0.0 0.0 0.00 0.00 0.00 76 1011.7
20260901105325 60 115 0.0 0.0 0.00 0.00 0.00 76 1011.6
20260901104833 60 119 0.0 0.0 0.00 0.00 0.00 76 1011.6
20260901104324 60 118 0.0 0.0 0.00 0.00 0.00 76 1011.5
20260901103832 60 118 0.0 0.0 0.00 0.00 0.00 76 1011.4
20260901103321 60 117 0.0 0.0 0.00 0.00 0.00 76 1011.4
20260901102833 60 117 0.0 0.0 0.00 0.00 0.00 76 1011.4
20260901102322 60 117 0.0 0.0 0.00 0.00 0.00 76 1011.3
20260901101830 60 122 0.0 0.0 0.00 0.00 0.00 76 1011.4
20260901101319 60 121 0.0 0.0 0.00 0.00 0.00 76 1011.4
20260901100831 60 128 0.0 0.0 0.00 0.00 0.00 76 1011.5
20260901100319 60 114 0.0 0.0 0.00 0.00 0.00 76 1011.5
20260901095828 60 125 0.0 0.0 0.00 0.00 0.00 76 1011.5
20260901095317 60 127 0.0 0.0 0.00 0.00 0.00 76 1011.5
20260901094828 60 121 0.0 0.0 0.00 0.00 0.00 76 1011.5
20260901094323 60 121 0.0 0.0 0.00 0.00 0.00 76 1011.5
20260901093830 60 122 0.0 0.0 0.00 0.00 0.00 76 1011.5
20260901093322 60 121 0.0 0.0 0.00 0.00 0.00 76 1011.5
20260901092831 60 160 0.0 0.0 0.00 0.00 0.00 76 1011.5
20260901092321 60 115 0.0 0.0 0.00 0.00 0.00 76 1011.5
20260901091830 60 115 0.0 0.0 0.00 0.00 0.00 76 1011.4
20260901091320 60 120 0.0 0.0 0.00 0.00 0.00 76 1011.5
20260901090829 60 165 0.0 0.0 0.00 0.00 0.00 76 1011.5
20260901090322 60 125 0.0 0.0 0.00 0.00 0.00 76 1011.7
20260901085834 60 192 0.0 0.0 0.00 0.00 0.00 76 1011.6
20260901085323 60 124 0.0 0.0 0.00 0.00 0.00 76 1011.7
20260901084832 60 119 0.0 0.0 0.00 0.00 0.00 76 1011.6
20260901084322 60 127 0.0 0.0 0.00 0.00 0.00 76 1011.6
20260901083831 60 113 0.0 0.0 0.00 0.00 0.00 76 1011.6
20260901083320 60 126 0.0 0.0 0.00 0.00 0.00 76 1011.5
20260901082832 60 118 0.0 0.0 0.00 0.00 0.00 76 1011.6
20260901082320 60 134 0.0 0.0 0.00 0.00 0.00 76 1011.5
20260901081832 60 126 0.0 0.0 0.00 0.00 0.00 76 1011.6
20260901081323 60 133 0.0 0.0 0.00 0.00 0.00 76 1011.5
20260901080831 60 152 0.0 0.0 0.00 0.00 0.00 76 1011.5
20260901080323 60 129 0.0 0.0 0.00 0.00 0.00 76 1011.6
20260901075831 60 111 0.0 0.0 0.00 0.00 0.00 76 1011.6
20260901075323 60 110 0.0 0.0 0.00 0.00 0.00 76 1011.6
20260901074832 60 119 0.0 0.0 0.00 0.00 0.00 76 1011.6
20260901074321 60 110 0.0 0.0 0.00 0.00 0.00 76 1011.6
20260901073830 60 109 0.0 0.0 0.00 0.00 0.00 76 1011.6
20260901073324 60 123 0.0 0.0 0.00 0.00 0.00 76 1011.6
20260901072833 60 126 0.0 0.0 0.00 0.00 0.00 76 1011.5
20260901072323 60 145 0.0 0.0 0.00 0.00 0.00 76 1011.5
20260901071831 60 130 0.0 0.0 0.00 0.00 0.00 76 1011.5
20260901071321 60 133 0.0 0.0 0.00 0.00 0.00 76 1011.4
20260901070813 60 132 0.0 0.0 0.00 0.00 0.00 76 1011.4
20260901070326 60 140 0.0 0.0 0.00 0.00 0.00 76 1011.4
20260901065817 60 119 0.0 0.0 0.00 0.00 0.00 76 1011.4
20260901065330 60 119 0.0 0.0 0.00 0.00 0.00 75 1011.4
20260901064819 60 116 0.0 0.0 0.00 0.00 0.00 75 1011.4
20260901064332 60 133 0.0 0.0 0.00 0.00 0.00 75 1011.4
20260901063821 60 134 0.0 0.0 0.00 0.00 0.00 75 1011.5
20260901063331 61 131 0.0 0.0 0.00 0.00 0.00 74 1011.4
20260901062822 61 131 0.0 0.0 0.00 0.00 0.00 74 1011.3
20260901062332 61 115 0.0 0.0 0.00 0.00 0.00 74 1011.3
20260901061822 61 103 0.0 0.0 0.00 0.00 0.00 74 1011.3
20260901061331 61 130 0.0 0.0 0.00 0.00 0.00 73 1011.3
20260901060822 61 143 0.0 0.0 0.00 0.00 0.00 73 1011.2
20260901060331 61 144 0.0 0.0 0.00 0.00 0.00 73 1011.2
20260901055818 62 144 0.0 0.0 0.00 0.00 0.00 73 1011.2
20260901055326 62 126 0.0 0.0 0.00 0.00 0.00 72 1011.1
20260901054835 62 151 0.0 0.0 0.00 0.00 0.00 72 1011.1
20260901054324 62 155 0.0 0.0 0.00 0.00 0.00 72 1011.1
20260901053832 62 156 0.0 0.0 0.00 0.00 0.00 72 1011.2
20260901053321 62 156 0.0 0.0 0.00 0.00 0.00 72 1011.2
20260901052829 62 156 0.0 0.0 0.00 0.00 0.00 71 1011.2
20260901052323 63 164 0.0 0.0 0.00 0.00 0.00 71 1011.1
20260901051831 63 202 0.0 0.0 0.00 0.00 0.00 71 1011.2
20260901051323 63 170 0.0 0.0 0.00 0.00 0.00 71 1011.2
20260901050832 63 175 0.0 0.0 0.00 0.00 0.00 71 1011.2
20260901050324 63 175 0.0 0.0 0.00 0.00 0.00 71 1011.2
20260901045813 63 180 0.0 0.0 0.00 0.00 0.00 71 1011.2
20260901045326 63 132 0.0 0.0 0.00 0.00 0.00 70 1011.1
20260901044817 63 144 0.0 0.0 0.00 0.00 0.00 70 1011.1
20260901044330 64 166 0.0 0.0 0.00 0.00 0.00 70 1011.0
20260901043819 64 173 0.0 0.0 0.00 0.00 0.00 70 1011.0
20260901043331 64 155 0.0 0.0 0.00 0.00 0.00 70 1011.0
20260901042818 64 151 0.0 0.0 0.00 0.00 0.00 69 1010.9
20260901042327 64 139 0.0 0.0 0.00 0.00 0.00 69 1011.0
20260901041818 64 192 0.0 0.0 0.00 0.00 0.00 69 1010.9
20260901041329 64 184 0.0 0.0 0.00 0.00 0.00 68 1010.8
20260901040818 65 186 0.0 0.0 0.00 0.00 0.00 68 1010.7
20260901040327 65 123 0.0 0.0 0.00 0.00 0.00 68 1010.7
20260901035819 65 157 0.0 0.0 0.00 0.00 0.00 68 1010.6
20260901035329 65 158 0.0 0.0 0.00 0.00 0.00 67 1010.5
20260901034820 65 140 0.0 0.0 0.00 0.00 0.00 67 1010.5
20260901034331 65 137 0.0 0.0 0.00 0.00 0.00 67 1010.5
20260901033820 66 183 0.0 0.0 0.00 0.00 0.00 66 1010.3
20260901033329 66 192 0.0 0.0 0.00 0.00 0.00 66 1010.1
20260901032818 66 202 0.0 0.0 0.00 0.00 0.00 65 1010.0
20260901032329 66 230 0.0 0.0 0.00 0.00 0.00 64 1010.0
20260901031822 67 236 0.0 0.0 0.00 0.00 0.00 64 1010.1
20260901031332 67 155 0.0 0.0 0.00 0.00 0.00 64 1010.0
20260901030821 67 188 0.0 0.0 0.00 0.00 0.00 63 1009.8
20260901030331 68 188 0.0 0.0 0.00 0.00 0.00 63 1009.7
20260901025820 68 206 0.0 0.0 0.00 0.00 0.00 62 1009.6
20260901025329 68 182 0.0 0.0 0.00 0.00 0.00 61 1009.6
20260901024816 69 171 0.0 0.0 0.00 0.00 0.00 61 1009.6
20260901024328 69 171 0.0 0.0 0.00 0.00 0.00 60 1009.6
20260901023818 69 170 0.0 0.0 0.00 0.00 0.00 59 1009.7
20260901023331 70 240 0.0 0.0 0.00 0.00 0.00 58 1009.5
20260901022823 70 221 0.0 0.0 0.00 0.00 0.00 58 1009.5
20260901022331 70 237 0.0 0.0 0.00 0.00 0.00 57 1009.4
20260901021820 71 238 0.0 0.0 0.00 0.00 0.00 55 1009.3
20260901021329 71 231 0.0 0.0 0.00 0.00 0.00 55 1009.2
20260901020817 72 230 0.0 0.0 0.00 0.00 0.00 54 1009.2
20260901020327 72 229 0.0 0.0 0.00 0.00 0.00 53 1009.2
20260901015835 73 236 0.0 0.0 0.00 0.00 0.00 53 1009.2
20260901015325 73 228 0.0 0.0 0.00 0.00 0.00 52 1009.1
20260901014818 74 198 0.0 0.0 0.00 0.00 0.00 51 1009.1
20260901014330 74 240 0.0 0.0 0.00 0.00 0.00 50 1008.9
20260901013818 75 240 0.0 0.0 0.00 0.00 0.00 49 1009.0
20260901013330 75 207 0.0 0.0 0.00 0.00 0.00 48 1009.0
20260901012818 76 234 0.0 0.0 0.00 0.00 0.00 48 1009.0
20260901012331 76 232 0.0 0.0 0.00 0.00 0.00 47 1009.0
20260901011821 77 244 0.0 0.0 0.00 0.00 0.00 45 1009.0
20260901011329 77 146 0.0 0.0 0.00 0.00 0.00 45 1009.0
20260901010825 78 164 0.0 0.0 0.00 0.00 0.00 44 1009.0
20260901010336 78 228 0.0 0.0 0.00 0.00 0.00 45 1009.1
20260901005825 79 157 0.0 0.0 0.00 0.00 0.00 44 1009.0